Terug naar catalogus

DMSP 5D-2 F13 DEB

ActiefSSO
NORAD 40403·DEBRIS·🇺🇸 United States

Gelanceerd Mar 24, 1995 vanaf Vandenberg Space Force Base

Loading…

Volgende Passages (komende 24 uur)

TLE

VersSource: Space-Track

Epoch: Sep 14, 2026, 13:01 UTC

1 40403U 95015Q   26257.54294359  .00001437  00000-0  55690-3 0  9997
2 40403  98.6642 284.7600 0013632 119.2422 241.0126 14.31511538599563

Volg DMSP 5D-2 F13 DEB in realtime met AllMySat

Download on the App Store